Hourly Weather Roundup
Issued by NWS Central Illinois

Home | Current Version | Previous Version | Text Only | Print | Product List | Glossary On
Versions: 1 2 3 4 5 6 7 8 9 10 11 12 13 14 15 16 17 18 19 20 21 22 23 24 25 26 27 28 29 30 31 32 33 34 35 36 37 38 39 40 41 42 43 44 45 46 47 48 49 50
263
NZUS43 KILX 181710
HWRILX

Area Weather Roundup
National Weather Service Lincoln IL
1200 PM CDT FRI AUG 18 2017

NOTE:  "FAIR" indicates few or no clouds below 12,000 feet, with
       no sigificant weather and/or obstructions to visibility.


CITY           SKY/WX    TMP DP  RH WIND       PRES   REMARKS
Bloomington    SUNNY     78  64  61 W9        29.95F HX  80
Champaign      MOSUNNY   80  63  55 W8G18     29.95S HX  81
Danville       SUNNY     78  64  62 W8        29.91S HX  80
Decatur        SUNNY     80  62  54 NW10      29.96S HX  81
Effingham      SUNNY     81  67  62 W8        29.98F HX  84
Flora          SUNNY     82  66  58 W9G16     29.98S HX  84
Galesburg      MOSUNNY   78  64  60 W8        29.96F HX  80
Jacksonville   SUNNY     79  65  62 W8        29.96F HX  81
Lacon          MOSUNNY   77  62  60 W6        29.93F
Lawrenceville  PTSUNNY   85  65  51 NW13      29.97S HX  86
Litchfield     SUNNY     79  66  63 W6        29.98F HX  81
$$


CITY           SKY/WX    TMP DP  RH WIND       PRES   REMARKS
Lincoln        SUNNY     80  65  59 W7        29.95F HX  82
Macomb         MOSUNNY   78  65  65 W5        29.98S HX  80
Mattoon        SUNNY     80  65  59 W14       29.95S HX  82
Mt Carmel AP   PTSUNNY   81  64  56 W10       29.97S HX  82
Olney-Noble AP PTSUNNY   80  65  59 W9G16     29.98F HX  82
Paris AP       SUNNY     80  65  61 W12G20    29.95F HX  81
Peoria         SUNNY     81  62  52 W9        29.94F HX  82
Pontiac        MOSUNNY   77  67  72 W14G20    29.94S
Rantoul        MOSUNNY   81  64  55 W13       29.94R HX  82
Robinson       MOSUNNY   81  67  64 W10       29.97S HX  83
Springfield    SUNNY     81  68  64 W9        29.96F HX  84
Taylorville    SUNNY     78  65  64 W7        29.97F HX  80
$$

...REGIONAL REPORTS...


CITY           SKY/WX    TMP DP  RH WIND       PRES   REMARKS
Chicago O`Hare PTSUNNY   75  59  57 NW16      29.88S
Kankakee       PTSUNNY   75  62  63 NW13G18   29.91F
Moline         MOSUNNY   80  60  50 NW6       29.93R HX  81
Mount Sterling SUNNY     79  65  62 W6        29.96F HX  80
Mount Vernon   SUNNY     83  65  54 VRB7      29.99F HX  85
Pittsfield     SUNNY     81  65  59 W5        29.97F HX  82
Quincy         SUNNY     80  63  55 W7        29.96F HX  81
Rockford       PTSUNNY   73  60  63 W12       29.90F
$$


CITY           SKY/WX    TMP DP  RH WIND       PRES   REMARKS
Burlington     CLOUDY    77  66  68 SW7       29.94F
Cedar Rapids   CLOUDY    74  62  66 VRB3      29.94R
Des Moines     MOSUNNY   81  64  56 SW8       29.91F HX  82
Kirksville     CLOUDY    82  60  47 SE6       29.97S HX  82
Ottumwa        CLOUDY    75  64  68 S9        29.92F
St Louis       MOSUNNY   84  63  49 NW7       29.98F HX  85
$$


CITY           SKY/WX    TMP DP  RH WIND       PRES   REMARKS
Terre Haute    PTSUNNY   80  63  55 W13       29.95S HX  81
Evansville     MOSUNNY   84  66  54 SW10      29.98S HX  86
Indianapolis   PTSUNNY   82  63  52 W14G21    29.93R HX  83
Lafayette      PTSUNNY   78  65  63 W13       29.90F HX  80
Madison        PTSUNNY   73  59  61 NW8       29.86S
Milwaukee      PTSUNNY   72  59  63 W13       29.85R
$$






USA.gov is the U.S. government's official web portal to all federal, state and local government web resources and services.